Home > Time Zones > World Clock > Weather > U.S.A. > Mesa > Past weeks

Flag for U.S.A. Weather past 2 weeks in Mesa, Arizona, U.S.A.

Now
32 °F

Clear.


Feels Like: 27 °F
Forecast: 30 / 56 °F
Wind: 5 mph from East

Location: Williams Gateway Airport

Current Time: Dec 28, 2014 at 2:33:34 AM

Latest Report: Dec 28, 2014 at 1:55 AM


Visibility: 10 mi

Pressure: 30.28 "Hg

Humidity: 69%

Dew point: 23 °F

Location of MesaLocation

Historic Weather in Mesa — Graph

°F

Mesa temperature yesterday

Maximum temperature yesterday: 57 °F (at 2:47 PM)
Minimum temperature yesterday: 28 °F (at 4:50 AM)
Average temperature yesterday: 38 °F

Past Weeks' High & Low Weather Summary

 TemperatureHumidityPressure
High64 °F (Dec 23, 1:47 PM)100% (Dec 13, 7:47 AM)30.32 "Hg (Dec 13, 7:47 AM)
Low28 °F (Dec 26, 6:47 AM)15% (Dec 23, 3:47 PM)29.72 "Hg (Dec 25, 3:47 PM)
Average46 °F72%30.08 "Hg
* Reported Dec 13 1:15 AM — Dec 28 1:15 AM, Mesa, Weather by CustomWeather, © 2014

Note: Actual official high and low records may vary slightly from our data, if they occured in-between our weather recording intervals... More about our weather records

Advertising

Mesa weather history for previous 24 hours

 ConditionsComfort  
Time TempWeatherWind HumidityBarometerVisibility
1:15 AM
Dec 28
32 °FClear.6 mph69%30.29 "Hg10 mi
12:55 AM34 °FClear.7 mph65%30.29 "Hg10 mi
12:35 AM34 °FClear.7 mph65%30.30 "Hg10 mi
12:15 AM34 °FClear.7 mph65%30.31 "Hg10 mi
11:50 PM
Dec 27
34 °FClear.3 mph65%30.31 "Hg20 mi
10:50 PM36 °FClear.3 mph56%30.32 "Hg20 mi
9:50 PM37 °FClear.3 mph56%30.31 "Hg20 mi
8:47 PM45 °FClear.5 mph37%30.31 "Hg20 mi
7:50 PM45 °FClear.5 mph39%30.30 "Hg20 mi
6:55 PM48 °FClear.7 mph29%30.28 "Hg20 mi
5:47 PM52 °FClear.10 mph26%30.26 "Hg20 mi
3:47 PM57 °FSunny.7 mph20%30.25 "Hg45 mi
2:47 PM57 °FSunny.9 mph20%30.24 "Hg45 mi
1:47 PM55 °FSunny.5 mph21%30.24 "Hg45 mi
12:47 PM54 °FSunny.No wind28%30.25 "Hg45 mi
11:47 AM48 °FSunny.No wind40%30.28 "Hg45 mi
10:47 AM43 °FSunny.No wind49%30.31 "Hg45 mi
9:47 AM39 °FSunny.No wind56%30.31 "Hg45 mi
8:50 AM34 °FSunny.No wind70%30.29 "Hg45 mi
7:47 AM28 °FSunny.No wind74%30.25 "Hg20 mi
6:47 AM28 °FClear.6 mph74%30.22 "Hg20 mi
5:47 AM30 °FClear.5 mph69%30.19 "Hg20 mi
4:50 AM28 °FClear.8 mph59%30.17 "Hg20 mi
4:35 AM30 °FClear.6 mph75%30.17 "Hg10 mi
4:15 AM30 °FClear.6 mph75%30.17 "Hg10 mi
3:55 AM32 °FClear.3 mph69%30.16 "Hg10 mi
3:35 AM32 °FClear.6 mph69%30.16 "Hg10 mi
3:15 AM32 °FClear.5 mph69%30.15 "Hg10 mi
2:55 AM32 °FClear.7 mph69%30.15 "Hg10 mi
2:35 AM32 °FClear.9 mph69%30.14 "Hg10 mi
2:15 AM32 °FClear.7 mph69%30.14 "Hg10 mi
Weather by CustomWeather, © 2014

See weather overviewHow to use our weather pages